ELECTRON R/B (46930 NORAD) Tracking and Keplerian Element Data

This shows tracking and keplerian element data for the satellite.

Feedback or suggestion? Click here.




ElementValue
Catalog46930
NameELECTRON R/B
Epoch Orbit162
Epoch Day335.26873013
Epoch Year2020
RAAN110.9074
Inclination97.3506
Eccentricity0.0030831
Argument of Perigee191.4666
Mean Anonmoly169.184
Mean Motion16.45021239
Decay Rate0.18582451
L11 46930U 20085B 20335.26873013 .18582451 20842-5 30216-3 0 9990
L22 46930 97.3506 110.9074 0030831 191.4666 169.1840 16.45021239 1625

Live tracking and technical data element details for ELECTRON R/B (NORAD 46930). ELECTRON R/B can be tracked NOW for your location showing map with azimuth and elevation plus other details from your city location.

Track the satellite on the map from your city or location and see movement details for azimuth, elevation, latitude, longitude, range, height, and movement on the map or in text.







IsCatalogInMostPopularTable: catalog: 46930, numindb: 29
Update: records affected: 1



GetName: 46930 ELECTRON R/B

Hit Count: updated at: Fri, 22 Jan 2021 18:30:51 GMT